Location: Cuiry
(49.3858°N, 3.7708°E)
Time: 23:06:27
(UTC+00:00)

Cosmos 1666 Rocket - Pass Details

Date: 12 January 2026
Orbit: 598 x 624 km, 82.5° (Epoch: 7 February)

Event Time Altitude Azimuth Distance (km) Brightness Sun altitude
Rises 16:44:52 0° 356° (N) 2,914 6.8 -5.8°
Reaches altitude 10° 16:47:15 10° 4° (N) 2,006 5.9 -6.1°
Maximum altitude 16:51:24 38° 73° (ENE) 967 4.1 -6.7°
Drops below altitude 10° 16:55:32 10° 142° (SE) 1,995 6.0 -7.3°
Sets 16:57:53 0° 150° (SSE) 2,897 6.9 -7.7°
